TimeEDT,TemperatureF,Dew PointF,Humidity,Sea Level PressureIn,VisibilityMPH,Wind Direction,Wind SpeedMPH,Gust SpeedMPH,PrecipitationIn,Events,Conditions,WindDirDegrees,DateUTC
12:56 AM,54.0,44.1,69,30.26,10.0,SSE,3.5,-,N/A,,Mostly Cloudy,150,2013-03-30 04:56:00
1:56 AM,54.0,45.0,72,30.24,10.0,Calm,Calm,-,N/A,,Mostly Cloudy,0,2013-03-30 05:56:00
2:56 AM,53.1,45.0,74,30.23,10.0,Calm,Calm,-,N/A,,Mostly Cloudy,0,2013-03-30 06:56:00
3:56 AM,53.1,45.0,74,30.22,10.0,Calm,Calm,-,N/A,,Mostly Cloudy,0,2013-03-30 07:56:00
4:56 AM,52.0,45.0,77,30.22,10.0,Calm,Calm,-,N/A,,Mostly Cloudy,0,2013-03-30 08:56:00
5:56 AM,52.0,45.0,77,30.22,10.0,Calm,Calm,-,N/A,,Mostly Cloudy,0,2013-03-30 09:56:00
6:56 AM,52.0,46.0,80,30.22,10.0,SSE,4.6,-,N/A,,Mostly Cloudy,150,2013-03-30 10:56:00
7:56 AM,54.0,46.9,77,30.22,10.0,SSE,5.8,-,N/A,,Mostly Cloudy,150,2013-03-30 11:56:00
8:56 AM,59.0,48.0,67,30.21,10.0,SSW,13.8,-,N/A,,Scattered Clouds,200,2013-03-30 12:56:00
9:56 AM,63.0,44.1,50,30.21,10.0,South,15.0,-,N/A,,Mostly Cloudy,190,2013-03-30 13:56:00
10:56 AM,66.9,44.1,44,30.21,10.0,SW,8.1,-,N/A,,Mostly Cloudy,230,2013-03-30 14:56:00
11:56 AM,66.0,41.0,40,30.21,10.0,WNW,8.1,-,N/A,,Mostly Cloudy,290,2013-03-30 15:56:00
12:56 PM,69.1,43.0,39,30.19,10.0,SW,6.9,-,N/A,,Mostly Cloudy,230,2013-03-30 16:56:00
1:56 PM,71.1,44.1,38,30.16,10.0,South,8.1,-,N/A,,Scattered Clouds,180,2013-03-30 17:56:00
2:56 PM,72.0,43.0,35,30.13,10.0,SW,11.5,16.1,N/A,,Mostly Cloudy,220,2013-03-30 18:56:00
3:56 PM,73.9,43.0,33,30.11,10.0,SSW,16.1,-,N/A,,Mostly Cloudy,210,2013-03-30 19:56:00
4:56 PM,73.0,41.0,31,30.10,10.0,SSW,13.8,-,N/A,,Partly Cloudy,200,2013-03-30 20:56:00
5:56 PM,71.1,39.0,31,30.09,10.0,South,13.8,-,N/A,,Scattered Clouds,190,2013-03-30 21:56:00
6:56 PM,66.0,37.9,36,30.10,10.0,SSW,12.7,-,N/A,,Scattered Clouds,200,2013-03-30 22:56:00
7:56 PM,60.1,42.1,51,30.11,10.0,SSW,10.4,-,N/A,,Scattered Clouds,200,2013-03-30 23:56:00
8:56 PM,57.0,44.1,62,30.12,10.0,SSW,6.9,-,N/A,,Partly Cloudy,200,2013-03-31 00:56:00
9:56 PM,57.9,46.9,67,30.12,10.0,SSW,8.1,-,N/A,,Scattered Clouds,200,2013-03-31 01:56:00
10:56 PM,59.0,48.9,69,30.12,10.0,SSW,11.5,-,N/A,,Scattered Clouds,200,2013-03-31 02:56:00
11:56 PM,60.1,50.0,69,30.11,10.0,SSW,10.4,-,N/A,,Scattered Clouds,210,2013-03-31 03:56:00